Home > Weather > Cheyenne > Past weeks

Flag for USA Past Weather in Cheyenne, Wyoming, USA — Yesterday and Last 2 Weeks

Now
68 °F

Scattered clouds.


Feels Like: 68 °F
Forecast: 54 / 78 °F
Wind: 13 mph from Southeast

Location: Cheyenne Airport

Current Time: Aug 28, 2016 at 8:19:21 PM

Latest Report: Aug 28, 2016 at 7:53 PM


Visibility: 10 mi

Pressure: 30.02 "Hg (24.18 "Hg at 1855m altitude)

Humidity: 44%

Dew Point: 45 °F

Location of CheyenneLocation

Past Weather in Cheyenne — Graph

°F

Cheyenne Temperature Yesterday

Maximum temperature yesterday: 79 °F (at 3:53 PM)
Minimum temperature yesterday: 48 °F (at 5:53 AM)
Average temperature yesterday: 64 °F

High & Low Weather Summary for the Past Weeks

 TemperatureHumidityPressure
High87 °F (Aug 17, 1:53 PM)93% (Aug 19, 2:53 AM)30.25 "Hg (Aug 19, 2:53 AM)
Low38 °F (Aug 20, 3:53 AM)11% (Aug 23, 12:53 PM)29.70 "Hg (Aug 23, 1:53 AM)
Average64 °F49%29.96 "Hg
* Reported Aug 13 6:53 PM — Aug 28 6:53 PM, Cheyenne, Weather by CustomWeather, © 2016

Note: Actual official high and low records may vary slightly from our data, if they occured in-between our weather recording intervals... More about our weather records

Advertising

Cheyenne Weather History for the Previous 24 Hours

Scroll right to see more
 ConditionsComfort  
Time TempWeatherWind HumidityBarometerVisibility
6:53 PM
Sun, Aug 28
75 °FSunny.9 mph26%29.99 "Hg10 mi
5:53 PM77 °FSunny.10 mph26%29.98 "Hg10 mi
4:53 PM76 °FPartly sunny.18 mph30%29.97 "Hg10 mi
3:53 PM80 °FSunny.6 mph17%29.95 "Hg10 mi
2:53 PM85 °FSunny.5 mph14%29.94 "Hg10 mi
1:53 PM85 °FSunny.3 mph14%29.93 "Hg10 mi
12:53 PM84 °FSunny.6 mph15%29.95 "Hg10 mi
11:53 AM81 °FPassing clouds.3 mph15%29.96 "Hg10 mi
10:53 AM80 °FPassing clouds.3 mph15%29.97 "Hg10 mi
9:53 AM76 °FScattered clouds.3 mph19%29.97 "Hg10 mi
8:53 AM71 °FSunny.9 mph29%29.98 "Hg10 mi
7:53 AM62 °FSunny.10 mph35%29.98 "Hg10 mi
6:53 AM54 °FClear.13 mph43%29.98 "Hg10 mi
5:53 AM52 °FClear.9 mph47%29.97 "Hg10 mi
4:53 AM52 °FClear.8 mph45%29.97 "Hg10 mi
3:53 AM52 °FClear.7 mph49%29.95 "Hg10 mi
2:53 AM53 °FClear.9 mph55%29.96 "Hg10 mi
1:53 AM58 °FClear.9 mph50%29.92 "Hg10 mi
12:53 AM57 °FClear.7 mph53%29.94 "Hg10 mi
11:53 PM
Sat, Aug 27
60 °FClear.No wind46%29.92 "Hg10 mi
10:53 PM58 °FClear.7 mph50%29.93 "Hg10 mi
9:53 PM59 °FClear.7 mph49%29.92 "Hg10 mi
8:53 PM63 °FClear.8 mph45%29.92 "Hg10 mi
Weather by CustomWeather, © 2016

See weather overviewHow to use our weather pages